FLOCK 3P-62 (42036 NORAD) Tracking and Keplerian Element Data

This shows tracking and keplerian element data for the satellite.

Feedback or suggestion? Click here.




ElementValue
Catalog42036
NameFLOCK 3P-62
Epoch Orbit5458
Epoch Day45.43759943
Epoch Year2018
RAAN111.1087
Inclination97.4659
Eccentricity0.0009566
Argument of Perigee89.4845
Mean Anonmoly270.7488
Mean Motion15.24187029
Decay Rate2.77E-05
L11 42036U 17008CS 18045.43759943 .00002770 00000-0 11658-3 0 9993
L22 42036 97.4659 111.1087 0009566 89.4845 270.7488 15.24187029 54587

Live tracking and technical data element details for FLOCK 3P-62 (NORAD 42036). FLOCK 3P-62 can be tracked NOW for your location showing map with azimuth and elevation plus other details from your city location.

Track the satellite on the map from your city or location and see movement details for azimuth, elevation, latitude, longitude, range, height, and movement on the map or in text.







IsCatalogInMostPopularTable: catalog: 42036, numindb: 107
Update: records affected: 1



GetName: 42036 FLOCK 3P-62

Hit Count: updated at: Sat, 21 Jul 2018 08:05:40 GMT